EWG2PC EKCH-EDDL

Flight info

Callsign EWG2PC
Flight time 0h 59m
Altitude 32000
Route NEXEN T503 GIMRU DCT MICOS DCT KEGAB DCT DENOL/N0363F260 T851 HALME HALME1A
Aircraft B738/M-SDE2E3FGHIRWXY/LB1

Departure

Time 2026-05-04 17:52
Airport Copenhagen Kastrup Airport (EKCH)

Arrival

Time 2026-05-04 18:51
Airport Düsseldorf Airport (EDDL)
Time Latitude Longitude Altitude Speed Heading
2026-05-04 17:15 55.62700 12.64163 23 ft 0 kts 32°
2026-05-04 17:25 55.62700 12.64162 23 ft 0 kts 32°
2026-05-04 17:41 55.62699 12.64161 23 ft 2 kts 32°
2026-05-04 17:41 55.62678 12.64135 25 ft 4 kts 41°
2026-05-04 17:42 55.62660 12.64100 28 ft 4 kts 62°
2026-05-04 17:42 55.62655 12.64060 27 ft 4 kts 113°
2026-05-04 17:42 55.62657 12.64051 27 ft 2 kts 123°
2026-05-04 17:42 55.62657 12.64050 27 ft 0 kts 123°
2026-05-04 17:45 55.62656 12.64055 27 ft 2 kts 123°
2026-05-04 17:46 55.62632 12.64120 26 ft 10 kts 123°
2026-05-04 17:46 55.62578 12.64202 23 ft 11 kts 185°
2026-05-04 17:46 55.62512 12.64239 23 ft 11 kts 128°
2026-05-04 17:46 55.62464 12.64357 23 ft 13 kts 126°
2026-05-04 17:47 55.62398 12.64448 25 ft 12 kts 181°
2026-05-04 17:47 55.62366 12.64437 23 ft 0 kts 195°
2026-05-04 17:48 55.62354 12.64431 23 ft 6 kts 194°
2026-05-04 17:49 55.62297 12.64406 22 ft 10 kts 194°
2026-05-04 17:49 55.62228 12.64368 21 ft 11 kts 204°
2026-05-04 17:49 55.62155 12.64306 24 ft 12 kts 205°
2026-05-04 17:49 55.62070 12.64235 23 ft 15 kts 205°
2026-05-04 17:50 55.61973 12.64154 23 ft 11 kts 205°
2026-05-04 17:50 55.61902 12.64096 24 ft 11 kts 204°
2026-05-04 17:50 55.61831 12.64077 23 ft 10 kts 179°
2026-05-04 17:50 55.61750 12.64081 27 ft 15 kts 178°
2026-05-04 17:51 55.61639 12.64076 26 ft 16 kts 202°
2026-05-04 17:51 55.61538 12.63935 26 ft 26 kts 221°
2026-05-04 17:51 55.61203 12.63416 27 ft 104 kts 221°
2026-05-04 17:51 55.60481 12.62296 90 ft 165 kts 225°
2026-05-04 17:52 55.59614 12.60948 1018 ft 163 kts 224°
2026-05-04 17:52 55.58752 12.59623 2024 ft 169 kts 224°
2026-05-04 17:52 55.57782 12.58130 2534 ft 202 kts 224°
2026-05-04 17:52 55.56632 12.56388 2897 ft 228 kts 219°
2026-05-04 17:53 55.55253 12.54675 3360 ft 255 kts 217°
2026-05-04 17:53 55.53773 12.52877 4360 ft 258 kts 218°
2026-05-04 17:53 55.52305 12.51094 5502 ft 256 kts 218°
2026-05-04 17:53 55.50828 12.49298 6522 ft 259 kts 218°
2026-05-04 17:54 55.49329 12.47470 7444 ft 264 kts 218°
2026-05-04 17:54 55.48438 12.46383 7998 ft 265 kts 218°
2026-05-04 17:54 55.46931 12.44545 8972 ft 268 kts 218°
2026-05-04 17:54 55.45385 12.42659 9914 ft 272 kts 219°
2026-05-04 17:55 55.43800 12.40722 10516 ft 288 kts 218°
2026-05-04 17:55 55.42074 12.38608 10719 ft 316 kts 218°
2026-05-04 17:55 55.40194 12.36311 10958 ft 339 kts 218°
2026-05-04 17:55 55.38219 12.33908 11590 ft 348 kts 218°
2026-05-04 17:56 55.36212 12.31478 12444 ft 351 kts 218°
2026-05-04 17:56 55.34195 12.29037 13326 ft 353 kts 218°
2026-05-04 17:56 55.32163 12.26579 14119 ft 356 kts 218°
2026-05-04 17:56 55.30140 12.24130 14809 ft 361 kts 218°
2026-05-04 17:57 55.28060 12.21616 15524 ft 364 kts 218°
2026-05-04 17:57 55.25960 12.19079 16241 ft 368 kts 218°
2026-05-04 17:57 55.23838 12.16519 16943 ft 372 kts 218°
2026-05-04 17:57 55.21694 12.13936 17626 ft 376 kts 218°
2026-05-04 17:58 55.19537 12.11325 18299 ft 379 kts 219°
2026-05-04 17:58 55.18112 12.09537 18694 ft 381 kts 219°
2026-05-04 17:58 55.15964 12.06784 19286 ft 384 kts 220°
2026-05-04 17:58 55.13803 12.03992 19877 ft 387 kts 220°
2026-05-04 17:59 55.11631 12.01189 20475 ft 390 kts 220°
2026-05-04 17:59 55.09432 11.98362 21047 ft 393 kts 220°
2026-05-04 17:59 55.04987 11.92680 22174 ft 399 kts 220°
2026-05-04 18:00 55.02735 11.89815 22732 ft 402 kts 220°
2026-05-04 18:00 55.00468 11.86936 23278 ft 404 kts 220°
2026-05-04 18:00 54.98187 11.84043 23765 ft 407 kts 220°
2026-05-04 18:00 54.95894 11.81140 24242 ft 408 kts 220°
2026-05-04 18:01 54.93597 11.78237 24752 ft 408 kts 220°
2026-05-04 18:01 54.91300 11.75337 25238 ft 408 kts 220°
2026-05-04 18:01 54.89031 11.72475 25690 ft 409 kts 220°
2026-05-04 18:02 54.84407 11.66653 26597 ft 411 kts 221°
2026-05-04 18:02 54.82096 11.63751 27018 ft 412 kts 221°
2026-05-04 18:02 54.79765 11.60832 27438 ft 412 kts 221°
2026-05-04 18:02 54.77435 11.57928 27850 ft 413 kts 221°
2026-05-04 18:03 54.75105 11.55032 28388 ft 411 kts 221°
2026-05-04 18:03 54.72800 11.52174 29081 ft 404 kts 221°
2026-05-04 18:03 54.70528 11.49359 29823 ft 398 kts 221°
2026-05-04 18:03 54.68284 11.46579 30384 ft 395 kts 221°
2026-05-04 18:04 54.66050 11.43810 30673 ft 397 kts 221°
2026-05-04 18:04 54.63826 11.41053 30914 ft 400 kts 221°
2026-05-04 18:04 54.59304 11.35469 31618 ft 400 kts 221°
2026-05-04 18:05 54.57038 11.32688 31910 ft 402 kts 220°
2026-05-04 18:05 54.52282 11.27341 31966 ft 411 kts 217°
2026-05-04 18:06 54.45048 11.19563 31975 ft 409 kts 217°
2026-05-04 18:06 54.40201 11.14304 31972 ft 413 kts 217°
2026-05-04 18:07 54.35347 11.09020 31973 ft 414 kts 217°
2026-05-04 18:07 54.30463 11.03707 31976 ft 418 kts 217°
2026-05-04 18:08 54.25577 10.98406 31970 ft 419 kts 217°
2026-05-04 18:08 54.20630 10.93057 31973 ft 420 kts 217°
2026-05-04 18:09 54.10733 10.82401 31971 ft 420 kts 217°
2026-05-04 18:10 54.05818 10.77130 31965 ft 420 kts 217°
2026-05-04 18:10 54.00864 10.71833 31968 ft 420 kts 217°
2026-05-04 18:11 53.95925 10.66566 31965 ft 420 kts 217°
2026-05-04 18:11 53.90970 10.61298 31967 ft 420 kts 216°
2026-05-04 18:12 53.86015 10.56045 31967 ft 420 kts 216°
2026-05-04 18:12 53.81056 10.50802 31971 ft 420 kts 216°
2026-05-04 18:13 53.76085 10.45561 31969 ft 420 kts 216°
2026-05-04 18:14 53.68642 10.37742 31972 ft 420 kts 216°
2026-05-04 18:14 53.63409 10.33253 31965 ft 429 kts 203°
2026-05-04 18:15 53.57485 10.31421 31961 ft 440 kts 188°
2026-05-04 18:15 53.51490 10.30315 31962 ft 430 kts 201°
2026-05-04 18:16 53.46105 10.26268 31961 ft 420 kts 217°
2026-05-04 18:16 53.41265 10.20819 31959 ft 418 kts 218°
2026-05-04 18:17 53.34033 10.12655 31973 ft 418 kts 217°
2026-05-04 18:18 53.26767 10.04569 31968 ft 418 kts 217°
2026-05-04 18:18 53.21911 9.99200 31952 ft 418 kts 217°
2026-05-04 18:19 53.14645 9.91195 31955 ft 417 kts 217°
2026-05-04 18:19 53.09828 9.85905 31952 ft 418 kts 217°
2026-05-04 18:20 53.04972 9.80587 31947 ft 417 kts 217°
2026-05-04 18:20 53.02546 9.77936 31785 ft 419 kts 216°
2026-05-04 18:20 53.00108 9.75275 31604 ft 418 kts 216°
2026-05-04 18:21 52.97681 9.72630 31428 ft 418 kts 216°
2026-05-04 18:21 52.95280 9.70016 31255 ft 418 kts 216°
2026-05-04 18:21 52.92843 9.67367 31070 ft 419 kts 216°
2026-05-04 18:21 52.90401 9.64716 30903 ft 420 kts 216°
2026-05-04 18:22 52.87953 9.62063 30726 ft 420 kts 216°
2026-05-04 18:22 52.85506 9.59414 30559 ft 421 kts 216°
2026-05-04 18:22 52.83049 9.56757 30379 ft 422 kts 216°
2026-05-04 18:22 52.80585 9.54098 30210 ft 423 kts 216°
2026-05-04 18:23 52.78121 9.51441 30031 ft 422 kts 216°
2026-05-04 18:23 52.75672 9.48806 29824 ft 418 kts 215°
2026-05-04 18:23 52.73244 9.46197 29623 ft 416 kts 215°
2026-05-04 18:23 52.70822 9.43597 29414 ft 416 kts 215°
2026-05-04 18:24 52.68420 9.41021 29222 ft 416 kts 215°
2026-05-04 18:24 52.65999 9.38428 29027 ft 415 kts 215°
2026-05-04 18:24 52.63576 9.35837 28828 ft 415 kts 215°
2026-05-04 18:24 52.61163 9.33260 28638 ft 413 kts 215°
2026-05-04 18:25 52.58757 9.30694 28440 ft 412 kts 215°
2026-05-04 18:25 52.56354 9.28134 28251 ft 411 kts 215°
2026-05-04 18:25 52.53956 9.25583 28081 ft 410 kts 214°
2026-05-04 18:25 52.51559 9.23037 27917 ft 410 kts 214°
2026-05-04 18:26 52.49163 9.20495 27762 ft 410 kts 214°
2026-05-04 18:26 52.46740 9.17925 27591 ft 420 kts 214°
2026-05-04 18:26 52.44337 9.15083 27283 ft 432 kts 222°
2026-05-04 18:26 52.42221 9.11572 26906 ft 433 kts 230°
2026-05-04 18:27 52.40442 9.07602 26518 ft 430 kts 238°
2026-05-04 18:27 52.38947 9.03444 26149 ft 428 kts 239°
2026-05-04 18:27 52.37454 8.99229 25772 ft 427 kts 239°
2026-05-04 18:27 52.35967 8.95034 25476 ft 425 kts 239°
2026-05-04 18:28 52.34480 8.90865 25210 ft 424 kts 239°
2026-05-04 18:28 52.32985 8.86705 24885 ft 425 kts 239°
2026-05-04 18:28 52.31479 8.82534 24520 ft 426 kts 238°
2026-05-04 18:28 52.29966 8.78365 24165 ft 423 kts 238°
2026-05-04 18:29 52.28469 8.74253 23825 ft 419 kts 238°
2026-05-04 18:29 52.26976 8.70159 23609 ft 419 kts 238°
2026-05-04 18:29 52.25482 8.66072 23342 ft 420 kts 238°
2026-05-04 18:29 52.23983 8.61978 23063 ft 419 kts 238°
2026-05-04 18:30 52.21016 8.53893 22529 ft 417 kts 238°
2026-05-04 18:30 52.19524 8.49836 22261 ft 416 kts 238°
2026-05-04 18:30 52.18038 8.45802 21990 ft 415 kts 238°
2026-05-04 18:31 52.16553 8.41778 21735 ft 414 kts 238°
2026-05-04 18:31 52.15070 8.37764 21474 ft 413 kts 238°
2026-05-04 18:31 52.13588 8.33762 21221 ft 412 kts 238°
2026-05-04 18:31 52.12110 8.29775 20964 ft 411 kts 238°
2026-05-04 18:32 52.10631 8.25790 20714 ft 410 kts 238°
2026-05-04 18:32 52.09155 8.21822 20460 ft 409 kts 238°
2026-05-04 18:32 52.07682 8.17866 20209 ft 408 kts 238°
2026-05-04 18:32 52.06229 8.13970 19967 ft 408 kts 238°
2026-05-04 18:33 52.04755 8.10027 19722 ft 408 kts 237°
2026-05-04 18:33 52.03281 8.06086 19480 ft 408 kts 237°
2026-05-04 18:33 52.01805 8.02148 19160 ft 410 kts 237°
2026-05-04 18:33 52.00318 7.98187 18801 ft 411 kts 237°
2026-05-04 18:34 51.98838 7.94250 18343 ft 406 kts 237°
2026-05-04 18:34 51.97375 7.90361 17814 ft 401 kts 237°
2026-05-04 18:34 51.95925 7.86517 17287 ft 398 kts 237°
2026-05-04 18:34 51.94484 7.82700 16766 ft 397 kts 237°
2026-05-04 18:35 51.93043 7.78891 16258 ft 395 kts 237°
2026-05-04 18:35 51.91610 7.75108 15755 ft 393 kts 237°
2026-05-04 18:35 51.90180 7.71340 15248 ft 391 kts 237°
2026-05-04 18:35 51.88756 7.67591 14775 ft 390 kts 238°
2026-05-04 18:36 51.87342 7.63874 14444 ft 385 kts 238°
2026-05-04 18:36 51.85955 7.60232 14200 ft 374 kts 238°
2026-05-04 18:36 51.84609 7.56704 13955 ft 362 kts 237°
2026-05-04 18:36 51.83304 7.53285 13715 ft 352 kts 237°
2026-05-04 18:37 51.82040 7.49980 13577 ft 339 kts 237°
2026-05-04 18:37 51.80833 7.46831 13431 ft 328 kts 237°
2026-05-04 18:37 51.79653 7.43756 13328 ft 316 kts 237°
2026-05-04 18:37 51.78512 7.40784 13248 ft 305 kts 237°
2026-05-04 18:38 51.77408 7.37913 13044 ft 299 kts 237°
2026-05-04 18:38 51.76317 7.35079 12793 ft 296 kts 237°
2026-05-04 18:38 51.75229 7.32253 12541 ft 297 kts 237°
2026-05-04 18:38 51.74141 7.29427 12306 ft 297 kts 237°
2026-05-04 18:39 51.73049 7.26597 12049 ft 297 kts 237°
2026-05-04 18:39 51.71958 7.23775 11798 ft 296 kts 237°
2026-05-04 18:39 51.70868 7.20957 11537 ft 295 kts 237°
2026-05-04 18:39 51.69923 7.18033 11271 ft 294 kts 247°
2026-05-04 18:40 51.69206 7.14949 10981 ft 293 kts 250°
2026-05-04 18:40 51.68420 7.11984 10676 ft 292 kts 238°
2026-05-04 18:40 51.67254 7.09329 10424 ft 288 kts 231°
2026-05-04 18:40 51.66039 7.06874 10326 ft 272 kts 230°
2026-05-04 18:41 51.64884 7.04544 10223 ft 259 kts 231°
2026-05-04 18:41 51.63786 7.02285 10066 ft 254 kts 231°
2026-05-04 18:41 51.62716 7.00047 9750 ft 252 kts 232°
2026-05-04 18:41 51.61656 6.97808 9370 ft 251 kts 232°
2026-05-04 18:42 51.60603 6.95576 9035 ft 249 kts 232°
2026-05-04 18:42 51.59558 6.93361 8724 ft 249 kts 232°
2026-05-04 18:42 51.58462 6.91225 8499 ft 246 kts 219°
2026-05-04 18:42 51.56950 6.90042 8259 ft 243 kts 189°
2026-05-04 18:43 51.55308 6.90212 8029 ft 241 kts 162°
2026-05-04 18:43 51.53914 6.91656 7758 ft 243 kts 128°
2026-05-04 18:43 51.53266 6.94150 7526 ft 244 kts 104°
2026-05-04 18:43 51.52921 6.96800 7215 ft 242 kts 103°
2026-05-04 18:44 51.52588 6.99456 6813 ft 243 kts 103°
2026-05-04 18:44 51.52477 7.00356 6693 ft 243 kts 103°
2026-05-04 18:44 51.51941 7.04768 6082 ft 241 kts 103°
2026-05-04 18:44 51.51605 7.07406 5700 ft 239 kts 110°
2026-05-04 18:45 51.50678 7.09523 5284 ft 233 kts 149°
2026-05-04 18:45 51.49167 7.10186 4926 ft 229 kts 187°
2026-05-04 18:45 51.47667 7.09414 4736 ft 225 kts 202°
2026-05-04 18:45 51.46240 7.08460 4497 ft 225 kts 202°
2026-05-04 18:46 51.44793 7.07483 4251 ft 226 kts 203°
2026-05-04 18:46 51.43445 7.06231 3993 ft 226 kts 224°
2026-05-04 18:46 51.42437 7.04299 3800 ft 224 kts 230°
2026-05-04 18:46 51.41487 7.02369 3748 ft 215 kts 231°
2026-05-04 18:47 51.40891 7.01137 3709 ft 207 kts 231°
2026-05-04 18:47 51.40025 6.99331 3493 ft 202 kts 231°
2026-05-04 18:47 51.39191 6.97582 3231 ft 191 kts 231°
2026-05-04 18:47 51.38406 6.95937 2974 ft 181 kts 231°
2026-05-04 18:48 51.37424 6.93879 2668 ft 172 kts 231°
2026-05-04 18:48 51.36935 6.92855 2520 ft 171 kts 231°
2026-05-04 18:48 51.36208 6.91331 2295 ft 173 kts 231°
2026-05-04 18:48 51.35483 6.89811 2064 ft 168 kts 231°
2026-05-04 18:49 51.34795 6.88367 1836 ft 158 kts 231°
2026-05-04 18:49 51.34159 6.87031 1666 ft 149 kts 231°
2026-05-04 18:49 51.33519 6.85690 1438 ft 151 kts 231°
2026-05-04 18:49 51.32890 6.84368 1217 ft 147 kts 230°
2026-05-04 18:50 51.32278 6.83083 1018 ft 144 kts 231°
2026-05-04 18:50 51.31667 6.81795 828 ft 146 kts 231°
2026-05-04 18:50 51.31055 6.80507 621 ft 144 kts 230°
2026-05-04 18:50 51.30450 6.79238 420 ft 143 kts 231°
2026-05-04 18:51 51.29857 6.77983 224 ft 139 kts 230°
2026-05-04 18:51 51.29294 6.76817 115 ft 126 kts 231°
2026-05-04 18:51 51.28877 6.75935 117 ft 56 kts 233°
2026-05-04 18:51 51.28659 6.75685 116 ft 25 kts 189°
2026-05-04 18:52 51.28545 6.75700 113 ft 10 kts 161°
2026-05-04 18:52 51.28486 6.75749 115 ft 8 kts 145°
2026-05-04 18:52 51.28457 6.75784 114 ft 5 kts 142°
2026-05-04 18:52 51.28402 6.75851 114 ft 15 kts 142°
2026-05-04 18:53 51.28316 6.75958 115 ft 16 kts 143°
2026-05-04 18:53 51.28217 6.75966 117 ft 15 kts 206°
2026-05-04 18:53 51.28148 6.75915 116 ft 0 kts 205°
2026-05-04 18:55 51.28147 6.75914 116 ft 1 kts 205°
2026-05-04 18:55 51.28061 6.75850 117 ft 12 kts 205°
2026-05-04 18:55 51.27977 6.75819 114 ft 12 kts 183°
2026-05-04 18:56 51.27919 6.75827 117 ft 4 kts 129°
2026-05-04 18:56 51.27914 6.75874 114 ft 5 kts 92°
2026-05-04 18:56 51.27913 6.75920 116 ft 1 kts 92°
2026-05-04 18:56 51.27913 6.75922 116 ft 0 kts 92°